Regional Weather Roundup
Issued by NWS

Home | Current Version | Previous Version | Text Only | Print | Product List | Glossary Off
Versions: 1 2 3 4 5 6 7 8 9 10 11 12 13 14 15 16 17 18 19 20 21 22 23 24 25 26 27 28 29 30 31 32 33 34 35 36 37 38 39 40 41 42 43 44 45 46 47 48 49 50

000
ASUS43 KFSD 280210
RWRSD

WEATHER ROUNDUP FOR SOUTH DAKOTA
NATIONAL WEATHER SERVICE SIOUX FALLS SD
900 PM CDT THU JUL 27 2017

NOTE: "FAIR" INDICATES FEW OR NO CLOUDS BELOW 12,000 FEET WITH NO
SIGNIFICANT WEATHER AND/OR OBSTRUCTIONS TO VISIBILITY.


SDZ001>005-009-010-012>017-280300-
NORTHWEST AND NORTH CENTRAL SOUTH DAKOTA

CITY           SKY/WX    TMP DP  RH WIND       PRES   REMARKS
BUFFALO          N/A     68  54  60 SE14      29.97F
FAITH            N/A     69  60  73 SE9       30.00F
MOBRIDGE       MOCLDY    76  61  59 E14       30.00F
$$

SDZ012>016-024>037-041>051-057-063-072>074-280300-
SOUTHWEST AND SOUTH CENTRAL SOUTH DAKOTA

CITY           SKY/WX    TMP DP  RH WIND       PRES   REMARKS
RAPID CTY ARPT CLOUDY    63  57  81 SE21      30.07F
PIERRE         CLOUDY    81  55  40 SE6       30.01S
CUSTER         CLOUDY    57  53  86 N7        30.19F
ELLSWORTH AFB  MOCLDY    65  58  79 S16       30.06
PHILIP         CLOUDY    79  56  45 E7        30.03S
PINE RIDGE     LGT RAIN  65  60  84 E10       30.02F
SPEARFISH      FAIR      68  57  68 S17G26    30.01F
WINNER         FAIR      79  59  50 SE8       30.04S
$$

SDZ004>011-016>023-039-040-280300-
NORTHEAST SOUTH DAKOTA

CITY           SKY/WX    TMP DP  RH WIND       PRES   REMARKS
ABERDEEN       MOCLDY    75  65  70 NE6       30.04F
WATERTOWN      CLEAR     73  58  59 NE5       30.06F
BROOKINGS      CLEAR     75  61  61 E6        30.06F
SISSETON         N/A     73  63  70 E5        30.04F
$$

SDZ017-020-022-023-036>040-048>070-280300-
SOUTHEAST SOUTH DAKOTA

CITY           SKY/WX    TMP DP  RH WIND       PRES   REMARKS
SIOUX FALLS    PTCLDY    72  64  76 NE6       30.05S
HURON          PTCLDY    76  63  64 E3        30.03F
CHAMBERLAIN    CLOUDY    78  62  58 SE7       30.05R
MITCHELL       PTCLDY    75  65  70 E3        30.04S
YANKTON        PTCLDY    73  64  73 NE3       30.04S
$$

ABBREVIATIONS USED IN REMARKS
   TC - TEMPERATURE IN CELSIUS
  WCI - WIND CHILL INDEX
   HX - HEAT INDEX
  VSB - VISIBILITY





USA.gov is the U.S. government's official web portal to all federal, state and local government web resources and services.